Location: Dehesa de la Cepeda
(40.6574°N, 4.3013°W)
Time: 09:47:53
(UTC+00:00)

Vanguard 2 Rocket - Pass Details

Date: 28 October 2021
Orbit: 555 x 3324 km, 32.9° (Epoch: 08 December)

Event Time Altitude Azimuth Distance (km) Brightness Sun altitude
Exits shadow 03:01:09 30° 180° (S) 4,276 10.0 -42.1°
Maximum altitude 03:06:00 34° 154° (SSE) 3,751 9.9 -41.2°
Drops below altitude 10° 03:17:01 10° 96° (E) 4,376 11.0 -39.3°
Sets 03:20:16 0° 87° (E) 5,017 11.6 -38.7°
